Theta_e
298 298 298 298 299 299 299 299 300 300 301 301 301 303 308 313 317 315 311 310 311 313 314 313 312 313 312 311 309 310 310 308 309 310 306 306 309 310 310 311 313 312 309 310 314 320 321 320 323 325 323 322 320 320 323 322 324 332 331 328 329 333 336 335 330 332 330 322 320 320 318 321 325 323 325 329 328 331 341 338 333 334 330 328 333 332 327
298 298 298 298 299 298 298 299 300 301 302 301 301 304 310 314 316 316 314 311 310 315 316 315 316 317 314 312 312 311 310 310 310 310 308 307 309 311 311 310 312 311 310 310 311 318 323 319 320 324 324 322 320 321 325 322 323 330 329 327 328 327 328 333 337 339 334 328 330 330 322 322 327 325 325 327 327 333 336 332 336 335 327 330 336 330 326
298 298 298 298 298 298 299 299 300 301 301 301 301 304 308 313 316 316 315 311 310 316 320 318 319 321 319 318 318 313 310 311 309 309 310 308 310 313 312 310 311 311 311 312 312 315 320 321 321 323 323 321 319 321 325 323 324 327 327 328 330 328 329 338 344 338 329 327 333 333 326 325 327 326 326 326 329 333 329 327 338 336 325 328 333 328 324
298 298 297 297 298 298 299 299 300 301 301 301 302 303 308 315 317 315 314 313 313 319 320 317 319 322 320 318 319 316 313 311 308 309 310 309 310 313 311 309 313 314 313 314 315 315 316 319 320 321 322 321 318 320 323 323 324 326 326 331 335 332 329 333 337 332 328 327 328 327 326 326 326 324 324 324 326 329 330 333 339 334 327 327 327 325 324
298 297 297 297 298 298 299 299 300 300 301 301 302 304 308 313 316 315 315 315 316 318 319 317 318 320 318 315 316 316 313 312 309 309 310 309 311 313 312 309 311 314 316 317 316 315 315 317 318 318 320 319 317 317 320 324 326 326 325 329 337 338 332 329 327 323 322 323 322 322 323 324 323 322 321 321 322 325 330 332 329 327 330 331 325 322 322
297 297 297 297 298 298 299 299 300 300 301 301 303 307 310 313 316 317 316 317 319 318 318 317 316 317 317 316 318 317 314 311 310 310 310 310 311 313 313 311 310 311 315 320 319 318 319 319 318 319 318 318 319 318 318 321 323 325 326 326 333 336 330 327 325 321 320 321 320 320 320 320 320 320 319 319 319 321 324 325 323 324 329 328 322 319 318
297 297 297 297 298 298 299 299 300 300 301 302 303 309 313 314 316 318 317 317 319 319 318 318 318 319 319 317 316 317 316 312 309 310 316 317 312 312 313 312 311 312 316 323 323 322 324 320 316 317 317 319 323 321 319 320 320 326 329 326 329 331 326 323 323 321 320 320 319 318 318 318 318 318 318 317 317 318 319 321 321 320 320 319 316 315 314
297 297 297 297 298 299 299 300 300 301 302 303 304 309 313 315 316 316 316 318 319 318 318 317 318 319 320 317 313 314 316 315 311 311 317 318 312 311 312 311 311 311 313 318 319 320 324 320 314 317 319 318 319 320 320 321 320 325 328 327 328 327 322 321 322 322 321 319 317 317 316 316 316 317 316 316 316 315 316 317 318 318 316 314 313 313 312
297 297 297 298 298 299 299 300 300 301 302 304 306 309 312 313 314 314 316 321 323 320 317 318 318 316 318 318 313 314 315 313 311 309 310 312 311 311 313 312 311 310 310 313 314 314 318 316 312 315 317 313 313 315 318 321 322 322 323 326 330 328 324 323 324 322 320 317 316 316 316 316 316 316 316 316 316 315 315 314 315 317 317 315 314 314 312
296 297 297 298 298 299 299 300 300 301 303 304 306 309 310 312 313 313 315 319 321 317 314 319 320 315 316 317 313 313 313 311 314 314 309 308 310 311 313 313 312 313 311 311 311 310 311 311 309 311 312 309 309 312 314 318 322 321 322 325 326 330 330 326 324 324 320 318 317 318 320 322 319 316 315 315 314 314 313 312 313 314 315 315 315 313 310
296 297 297 298 298 299 299 299 300 301 302 302 303 305 307 308 310 313 314 318 321 317 312 318 322 313 310 312 311 312 313 312 315 317 311 309 309 309 314 317 316 314 311 309 310 309 309 310 309 310 310 309 311 311 311 313 315 317 324 327 323 329 332 327 326 327 321 318 319 321 323 324 318 314 314 313 312 312 312 312 312 312 312 312 311 310 308
297 297 298 298 298 299 299 299 300 300 300 301 301 302 305 306 308 311 313 317 321 319 314 316 318 311 308 309 309 310 312 311 313 314 312 311 311 310 312 316 317 313 309 309 311 310 309 311 311 310 309 309 311 312 311 311 311 312 319 323 324 328 329 324 325 327 322 319 320 321 321 318 314 312 311 310 310 310 310 310 310 310 311 310 309 308 306
297 297 298 298 298 299 299 299 300 300 300 301 301 302 304 304 306 310 313 316 320 319 314 312 312 309 308 308 307 308 309 310 313 314 313 312 312 310 309 311 312 310 308 311 315 314 313 314 315 314 312 312 312 312 311 311 311 312 314 319 325 328 326 324 323 322 320 320 321 320 317 314 312 312 311 310 311 311 311 311 309 309 310 310 309 307 305
297 297 298 298 298 299 299 299 300 300 300 300 301 302 304 303 305 310 314 317 321 319 313 311 311 311 310 309 310 311 309 309 313 312 311 311 310 308 309 308 307 308 312 315 319 321 319 319 321 319 318 319 317 315 314 312 312 313 313 315 322 326 326 326 322 317 317 319 318 317 316 314 313 312 311 311 311 311 311 311 309 308 308 309 308 307 305
297 297 298 298 299 299 299 299 300 300 299 300 301 302 303 304 305 309 311 314 319 318 312 310 311 312 310 309 314 316 312 312 314 309 308 310 309 307 308 308 306 309 314 314 318 323 323 322 324 322 319 319 316 313 315 315 315 314 312 313 318 321 323 326 323 316 314 316 316 315 316 316 314 311 310 309 309 310 310 310 309 307 306 307 308 307 306
297 298 298 299 299 299 298 298 299 299 300 301 301 302 305 307 307 307 308 313 318 315 309 308 311 312 311 310 314 316 314 315 315 312 311 311 308 305 308 309 307 308 313 317 320 325 325 322 322 320 316 315 313 312 314 316 317 316 312 313 317 318 320 326 325 318 315 316 316 315 316 315 311 309 309 308 308 310 311 311 311 307 304 304 305 306 306
298 298 298 299 299 298 298 298 299 300 301 301 302 303 307 309 309 308 309 314 317 311 305 307 311 312 312 311 311 312 314 317 318 317 316 313 308 306 308 311 310 309 314 322 325 326 324 320 319 319 315 312 314 315 314 315 317 316 314 315 318 319 321 325 324 318 315 315 314 312 313 312 309 308 308 308 308 310 313 315 312 306 302 301 302 302 303
298 298 298 299 298 297 298 298 299 301 302 302 304 305 306 308 309 309 311 315 316 309 304 305 309 310 309 308 308 309 312 317 319 322 324 318 309 305 307 310 311 310 314 321 325 326 323 318 318 319 315 311 314 315 314 314 314 313 313 313 315 316 317 318 318 315 313 312 311 310 310 309 308 308 308 309 309 311 314 314 309 302 300 300 299 299 300
297 298 298 298 298 297 298 299 300 301 303 304 305 306 306 306 307 309 311 313 312 307 303 304 306 306 306 308 311 312 312 313 317 323 327 319 308 307 311 312 313 313 317 322 323 322 321 316 314 317 317 313 313 314 312 312 312 312 312 314 314 313 313 314 315 314 312 311 310 310 310 308 306 307 308 308 311 313 311 306 303 300 299 299 299 298 299
297 297 298 298 297 298 299 299 301 302 303 304 306 307 306 306 307 309 309 309 309 307 303 303 304 304 305 309 313 314 314 315 316 320 323 319 315 319 321 318 317 317 319 324 320 316 318 317 312 314 316 313 313 313 311 310 310 310 311 311 310 310 311 312 312 311 312 311 310 311 312 307 305 307 308 307 309 309 304 301 300 300 299 299 299 299 299
297 297 298 298 297 298 299 300 301 303 303 305 307 308 307 305 307 308 306 305 310 310 305 303 303 304 305 307 309 310 312 313 314 316 320 320 319 322 322 321 321 318 317 321 318 313 316 318 313 312 314 312 312 314 313 311 310 309 310 310 308 308 310 311 310 308 310 310 310 310 309 305 303 306 307 306 305 304 301 300 301 300 300 300 300 300 300
296 297 298 298 297 298 299 300 302 303 303 305 307 309 308 305 303 305 303 303 307 308 304 303 303 304 305 306 306 307 309 309 309 313 319 320 318 319 322 322 320 315 315 320 318 313 315 318 314 313 314 312 313 313 311 311 311 310 310 310 308 307 308 309 308 307 307 308 307 306 305 304 303 303 303 302 302 302 301 301 300 300 301 301 300 300 300
296 297 298 298 297 299 300 301 302 303 304 307 308 308 309 306 303 303 303 302 304 304 301 302 304 304 304 306 306 306 307 309 308 309 314 319 319 318 318 318 315 313 317 324 323 319 319 318 314 314 313 312 312 312 310 310 312 311 310 310 308 307 307 307 307 307 307 306 306 304 304 303 303 302 302 302 301 301 301 301 301 301 301 300 300 300 300
296 298 298 297 298 299 300 301 302 303 306 309 308 307 308 307 305 305 304 305 311 310 304 304 308 306 303 305 306 305 307 309 310 309 311 315 319 318 315 315 316 315 316 317 316 318 320 314 310 312 312 310 311 312 311 310 310 310 310 310 309 308 308 308 308 307 307 307 306 304 303 303 302 302 302 302 301 301 301 301 301 301 300 300 300 299 299
297 298 297 297 298 299 300 301 302 304 306 308 307 307 307 307 307 308 305 306 314 318 311 305 306 305 303 304 305 305 306 308 308 309 308 309 315 317 312 310 313 313 313 312 311 316 319 313 309 311 311 309 312 312 311 311 311 310 310 311 310 309 307 307 307 306 306 306 305 304 303 302 302 302 302 302 302 301 301 301 300 300 300 300 300 300 300
297 298 297 298 299 300 301 301 302 304 306 308 307 305 306 306 306 306 305 304 308 314 313 306 304 303 303 305 305 305 307 308 307 308 308 307 311 312 309 308 310 308 308 310 311 314 316 313 311 312 310 309 312 312 309 309 311 310 310 311 310 308 307 307 307 306 306 306 305 304 303 302 302 302 301 301 301 301 301 301 300 300 300 300 300 300 300
297 298 297 298 299 300 301 301 302 304 306 307 307 305 304 305 305 305 308 307 307 310 311 307 305 304 303 304 305 305 307 307 306 306 307 307 308 307 305 307 309 308 307 311 312 312 313 311 310 310 309 308 310 311 309 308 310 310 309 307 306 307 307 306 306 306 307 306 305 304 304 303 302 302 301 301 301 300 301 301 300 301 301 300 301 301 299
297 297 297 298 299 300 301 301 302 304 306 307 307 305 303 304 304 305 307 308 308 311 312 307 304 305 305 304 305 305 306 306 306 305 305 305 306 306 304 306 310 311 311 313 313 312 311 310 310 310 309 308 308 309 309 310 310 309 308 306 305 306 306 307 307 306 306 305 304 304 304 303 302 302 301 301 300 300 301 301 301 301 300 299 300 302 301
297 297 297 298 300 300 301 302 301 303 306 306 305 305 305 303 303 305 306 305 305 311 316 313 308 306 306 305 305 305 305 305 305 304 304 304 304 303 303 305 310 312 311 312 314 313 310 310 312 310 308 308 309 309 310 310 308 307 306 306 306 306 306 307 307 305 304 304 304 304 304 303 302 302 302 301 300 300 301 301 300 299 299 299 299 300 302
297 298 297 298 300 300 301 302 301 302 306 305 305 309 311 307 302 304 307 306 303 308 317 318 311 306 305 304 305 306 305 305 305 304 303 303 303 302 302 305 309 312 313 312 312 312 309 309 311 310 307 311 314 311 308 307 306 305 304 305 305 305 305 306 305 304 303 303 303 304 304 304 302 302 301 301 300 301 301 301 300 299 300 300 299 299 300
296 297 297 298 300 301 301 301 301 302 304 304 308 314 314 308 303 304 307 306 303 307 315 316 311 309 309 306 304 305 305 304 305 304 303 303 303 302 303 304 305 307 310 312 312 313 311 310 311 308 307 312 317 312 306 306 306 304 303 304 304 305 305 304 304 303 302 301 301 302 303 303 302 302 302 301 301 301 300 300 300 300 300 300 301 300 300
296 297 298 298 299 301 302 301 301 302 304 304 307 309 307 304 303 304 307 306 303 305 313 315 309 306 309 307 304 305 306 305 306 307 306 305 305 305 305 305 305 305 309 313 313 312 310 310 310 307 306 310 313 310 307 307 306 304 303 304 304 304 304 304 303 302 301 300 300 301 301 301 301 302 301 301 301 301 301 300 301 301 301 301 301 301 301
296 297 298 298 299 301 302 301 301 303 306 306 304 301 301 302 303 304 306 307 304 304 310 314 308 303 305 306 304 305 307 308 310 314 310 304 305 308 308 309 311 310 308 310 311 308 307 310 311 308 307 309 311 308 306 305 305 303 304 304 304 303 305 305 304 304 304 302 300 301 302 301 301 300 299 299 300 300 301 301 301 300 301 300 300 300 300
296 297 297 298 300 300 301 301 302 304 307 308 305 301 300 301 303 304 305 306 306 305 306 310 310 305 305 308 308 306 308 310 312 315 311 304 304 308 310 312 315 313 306 306 311 309 306 308 310 308 308 310 311 308 305 304 304 304 304 304 304 305 305 305 304 305 305 303 299 299 299 299 299 299 299 299 299 299 300 300 300 300 301 301 299 299 300
296 296 297 298 300 300 301 303 304 305 308 308 304 301 300 301 302 305 304 305 309 310 306 308 313 311 308 309 309 306 308 312 312 312 312 307 304 308 314 316 313 309 307 310 314 312 306 307 309 308 308 309 309 306 304 303 304 305 305 304 304 304 303 303 303 303 303 302 301 299 297 297 299 301 302 301 300 298 298 298 298 298 301 302 299 297 299
296 296 297 299 300 301 303 305 305 306 309 307 302 300 301 302 302 304 304 305 310 312 308 308 314 316 312 310 308 305 306 311 311 311 314 313 307 309 320 321 310 306 310 315 314 308 305 307 310 309 308 309 307 304 304 305 304 304 305 304 304 304 302 302 302 302 302 303 304 303 301 300 302 304 304 303 301 298 297 298 299 299 303 304 300 297 298
296 297 298 300 303 305 306 305 304 304 305 303 301 300 301 303 304 304 305 306 307 308 310 311 313 314 313 311 308 305 306 309 309 309 312 313 307 309 320 319 309 307 312 311 307 306 307 311 313 310 306 307 306 304 304 306 305 304 306 306 304 304 303 302 303 303 302 303 304 304 303 303 304 304 304 304 303 301 300 300 300 300 302 303 300 298 298
298 300 303 305 308 309 308 305 303 303 302 301 303 303 303 305 307 307 308 308 305 305 311 313 311 311 314 313 308 305 305 308 311 310 310 308 305 306 313 312 308 310 311 305 303 308 311 312 314 310 304 302 304 304 304 306 306 306 307 305 303 303 303 302 302 303 304 303 303 303 303 303 303 303 303 303 303 302 300 299 298 298 299 299 299 299 299
303 305 306 307 308 308 306 302 301 303 303 302 305 307 306 305 306 307 308 308 306 307 311 312 310 312 315 313 308 305 306 309 311 310 308 307 305 306 309 308 307 311 310 303 303 310 310 307 309 310 305 301 302 302 303 304 306 305 303 301 299 300 300 299 300 302 303 303 303 302 302 302 302 304 304 303 302 300 298 297 298 299 299 299 299 299 300
305 305 306 307 306 304 302 301 301 303 306 306 306 306 306 305 306 307 306 306 306 307 309 309 308 310 313 313 309 305 305 310 314 313 309 307 307 309 309 306 306 310 308 304 306 313 311 306 307 308 305 302 301 301 302 304 305 304 301 298 297 298 299 298 299 299 300 299 299 299 299 299 299 301 301 301 302 301 299 297 298 299 299 299 299 299 299
302 302 304 305 303 300 300 301 302 303 306 306 305 304 305 305 306 308 307 306 306 307 308 309 308 307 309 314 315 309 303 306 313 316 311 307 308 311 309 304 305 308 306 303 307 313 311 307 305 305 305 304 303 302 301 303 304 303 300 297 297 298 298 298 298 298 298 297 296 297 298 298 299 299 299 298 299 299 298 298 298 299 299 300 299 299 300
299 300 302 302 301 300 301 303 304 303 304 304 304 304 305 305 306 306 306 306 308 309 309 309 309 307 307 309 311 309 304 303 307 313 311 305 306 310 308 303 303 305 304 304 307 310 308 305 303 303 304 304 303 302 303 303 304 304 301 297 297 298 298 297 297 298 298 298 298 298 299 299 299 299 299 299 299 299 298 299 299 299 299 300 299 300 300
301 302 302 302 301 301 302 303 303 302 303 304 304 303 303 304 304 304 304 307 309 310 308 306 306 307 306 305 306 307 305 303 305 311 311 306 305 307 306 304 305 305 303 304 306 306 305 305 304 303 304 303 303 303 304 303 303 304 301 297 297 299 299 298 298 298 299 299 299 299 299 300 299 299 299 299 299 299 299 299 299 299 300 300 300 300 300
302 303 304 304 302 301 302 304 303 301 301 303 304 303 303 304 304 305 307 310 310 309 308 309 310 308 306 306 308 307 304 304 307 308 307 305 306 305 304 304 306 305 304 304 305 304 305 307 306 303 303 302 302 303 303 303 304 305 301 297 297 299 299 299 299 298 299 299 299 300 299 299 299 299 300 299 299 299 299 299 300 300 300 300 300 300 300
304 303 305 305 302 301 302 303 302 301 301 302 304 306 308 309 310 311 312 313 312 310 309 311 312 308 304 306 310 308 307 309 309 306 304 305 305 303 303 305 306 305 305 304 304 304 306 306 304 302 301 302 302 302 303 304 303 302 301 300 298 297 297 298 298 298 298 299 299 300 299 299 299 299 299 299 299 300 300 300 300 300 300 300 301 301 300
304 304 304 303 302 301 301 300 301 302 303 303 306 309 311 311 312 313 312 311 311 311 309 308 308 307 305 306 308 308 309 311 308 305 307 308 305 302 304 305 303 304 304 303 304 306 308 306 303 301 301 302 302 302 303 303 299 298 301 303 300 297 298 299 299 299 299 299 299 299 299 299 300 299 299 299 299 300 300 300 300 300 300 300 301 300 300
304 303 302 302 302 301 299 300 304 307 307 306 308 310 309 306 307 310 311 309 309 309 307 306 307 307 305 306 306 306 308 310 306 304 306 308 305 303 305 304 302 303 304 302 304 308 308 304 302 301 301 301 301 301 302 302 300 300 302 302 298 296 298 299 298 299 299 299 299 300 299 299 299 299 299 299 299 300 300 300 300 300 300 300 300 300 300
305 302 300 302 302 300 301 305 309 309 307 306 306 306 305 304 304 306 307 308 308 307 305 306 308 306 305 308 311 309 306 307 306 304 305 306 304 303 304 304 303 304 306 308 312 313 307 302 301 301 301 301 301 301 301 302 302 303 304 301 297 297 298 299 298 299 299 299 299 299 299 299 299 299 299 299 299 299 299 299 299 299 300 300 300 300 300
304 302 300 300 301 303 307 309 306 304 304 304 303 302 305 306 306 306 306 305 305 305 306 310 314 311 306 307 311 308 304 305 305 304 304 305 304 303 303 303 302 302 307 313 315 311 304 300 301 301 300 300 301 301 301 301 300 299 300 299 298 298 299 299 299 300 300 299 299 299 299 299 299 299 299 299 299 299 299 299 299 299 300 300 300 300 300
302 301 301 301 302 306 309 306 302 304 308 307 303 304 306 306 305 306 306 306 307 308 307 310 314 312 307 305 306 304 303 305 305 304 304 305 304 302 302 303 304 307 311 313 310 305 301 300 300 301 301 301 302 302 301 300 297 297 298 299 299 299 300 299 300 300 299 299 299 299 299 298 299 299 299 299 298 298 299 299 299 299 299 300 300 300 300
300 300 304 307 308 308 306 303 302 306 308 306 305 307 308 308 307 306 305 305 308 310 309 308 309 308 306 305 304 303 303 304 304 303 304 306 305 303 304 307 313 317 315 309 303 301 300 300 300 301 301 302 302 301 300 299 298 298 299 299 299 300 300 300 300 300 300 299 300 299 299 299 299 299 298 298 298 298 299 299 299 299 300 299 299 299 300
299 302 307 309 309 306 303 303 305 306 304 305 307 309 308 308 308 305 304 307 312 312 310 310 309 307 305 305 304 303 303 304 303 302 304 305 305 305 310 315 317 314 308 303 301 301 301 300 301 301 301 301 300 299 298 298 298 299 299 299 300 300 300 300 300 300 300 299 299 299 299 299 299 298 298 298 299 299 299 299 299 299 299 299 299 299 299
Wind_Speed
11 10 10 10 10 11 12 13 13 15 16 13 8 6 3 0 1 1 11 21 16 6 2 1 1 2 3 5 8 7 5 3 4 5 5 3 1 2 4 3 5 4 5 4 5 5 4 4 3 3 3 4 2 2 3 4 3 4 1 3 1 2 3 4 1 2 2 4 6 8 8 7 8 6 4 3 2 2 4 4 3 2 2 1 4 2 1
10 10 11 10 10 11 11 13 12 12 14 13 9 4 1 0 2 1 7 15 8 4 2 2 2 3 4 6 8 7 4 1 4 5 5 4 3 3 4 3 4 4 5 7 7 5 4 4 4 3 2 2 3 4 7 6 4 3 1 2 0 1 2 4 3 3 4 4 4 5 7 6 4 3 5 6 5 4 3 1 3 3 1 3 5 2 2
10 10 11 10 11 11 11 12 11 11 13 11 5 2 1 1 1 1 3 9 5 1 3 3 1 3 4 4 6 5 1 2 5 5 5 5 3 3 2 2 4 4 6 8 9 8 4 3 2 2 3 3 3 6 8 6 4 4 2 2 3 2 2 3 4 3 2 2 1 2 2 3 2 3 7 7 7 5 2 1 3 2 0 3 4 3 4
10 10 10 10 11 11 11 12 11 11 12 10 4 3 2 0 2 0 1 2 2 2 2 1 2 4 2 3 4 2 1 2 4 5 4 4 4 3 1 3 5 5 7 7 7 9 7 4 4 3 3 2 2 5 8 6 6 7 8 6 4 4 3 3 6 5 3 4 3 3 2 3 3 5 9 8 6 5 4 3 2 3 3 3 2 5 7
11 11 10 10 11 11 11 12 13 11 9 7 4 3 2 1 1 1 1 0 1 3 3 1 3 3 1 2 3 3 3 2 4 4 2 3 4 4 3 6 6 4 5 6 4 6 7 7 5 4 4 4 2 5 6 6 7 8 8 7 3 5 3 3 6 8 7 7 6 5 7 7 7 8 10 10 8 8 8 4 1 2 4 2 1 6 8
11 11 10 10 11 11 11 12 13 10 7 5 3 1 1 1 1 1 1 1 1 2 3 3 5 5 3 2 2 4 4 4 2 3 2 3 5 4 4 8 8 4 4 5 3 4 6 6 5 3 4 4 3 5 5 5 6 6 4 5 4 5 2 2 7 11 12 12 11 11 12 10 10 11 10 10 10 11 9 5 3 3 4 4 7 10 8
11 11 10 10 10 11 12 12 13 10 6 5 2 1 2 0 0 2 1 0 2 3 3 3 2 4 4 1 3 3 3 4 1 1 3 4 6 6 5 8 11 10 7 7 4 3 4 3 3 2 3 3 3 3 3 4 4 4 4 3 2 4 2 3 9 11 11 11 12 12 13 12 11 11 10 9 11 11 9 8 9 10 9 8 11 13 9
11 10 10 10 11 11 12 12 13 10 5 4 2 1 1 1 1 2 2 2 2 2 3 1 1 3 1 1 2 1 3 4 3 3 4 3 5 7 7 9 12 13 11 10 6 2 5 5 3 3 3 4 3 1 1 1 3 4 4 3 3 4 2 2 7 8 6 8 11 12 13 14 13 11 9 8 9 11 9 7 7 9 9 10 11 11 7
11 10 10 10 11 12 12 12 13 11 7 4 2 1 2 3 3 2 1 2 3 2 2 0 2 3 2 1 1 2 4 4 5 5 5 6 6 5 6 9 10 10 12 12 7 3 5 6 5 4 5 3 2 1 2 3 2 3 3 2 3 4 2 2 5 6 2 4 10 12 12 14 13 10 10 9 8 7 7 6 6 4 6 8 8 6 4
11 11 11 11 11 12 12 13 13 11 7 4 3 3 4 4 4 2 2 0 3 2 1 1 3 0 1 2 3 4 5 5 7 5 5 6 8 7 7 8 7 7 10 8 3 0 2 3 3 5 5 3 3 2 3 5 4 2 2 3 3 3 4 3 3 5 2 4 7 8 7 8 6 5 5 4 5 7 7 7 9 7 3 4 4 3 4
11 11 11 12 12 12 12 12 12 10 7 5 3 4 5 5 4 2 2 2 3 2 2 2 3 1 2 6 7 7 9 9 7 5 2 4 6 7 7 8 7 5 3 1 3 2 0 0 2 4 5 8 9 8 10 11 7 3 4 3 3 3 4 3 2 4 4 5 2 4 4 3 1 3 2 2 5 8 9 8 9 9 6 5 5 5 6
11 11 12 12 12 12 12 11 11 9 5 3 3 6 5 5 4 2 3 2 4 2 1 1 3 4 7 10 8 7 9 9 6 5 5 4 5 6 6 7 6 2 2 3 1 3 3 3 4 5 6 9 12 14 15 15 12 7 5 5 3 4 4 2 2 3 4 2 3 4 2 2 2 2 5 8 9 11 12 11 11 9 8 8 8 7 7
12 12 12 12 12 12 12 11 10 8 5 3 6 8 7 5 4 2 2 2 2 3 2 3 4 7 10 10 9 6 7 7 5 6 7 5 6 6 4 4 4 3 3 2 5 5 4 3 3 4 4 6 10 13 15 14 13 12 8 4 5 5 3 2 3 3 3 2 3 2 3 3 3 3 4 6 5 6 8 9 9 9 6 6 7 7 8
12 13 13 13 13 13 12 11 9 7 5 5 8 10 10 7 4 2 0 3 1 4 1 4 5 7 9 8 6 5 6 6 6 6 5 5 5 4 1 1 2 3 3 5 6 5 4 3 3 4 4 4 5 5 6 8 10 11 10 7 3 5 4 2 3 3 3 3 3 3 4 3 2 1 1 2 2 2 1 4 5 7 7 4 6 8 8
13 14 14 14 14 13 12 11 9 7 5 6 9 11 12 10 8 5 1 3 1 4 4 2 1 5 8 6 5 5 4 4 4 4 3 3 3 2 0 0 1 4 5 5 4 3 3 3 3 3 3 3 2 1 2 3 5 7 8 7 5 5 4 4 3 2 2 4 4 3 3 2 2 1 2 2 3 3 2 3 3 4 6 5 4 7 8
13 14 14 14 14 13 13 12 10 7 6 7 9 11 9 7 10 9 4 1 3 3 4 4 1 5 6 4 4 5 3 1 2 3 4 4 2 1 1 2 3 5 5 4 3 4 4 3 3 3 1 1 1 1 2 2 3 6 8 8 9 8 4 4 5 3 2 4 3 2 1 1 1 1 4 4 4 4 2 1 2 1 4 5 3 4 5
14 15 15 15 14 14 13 12 10 8 7 9 12 12 5 3 6 8 4 1 4 2 5 5 4 7 5 3 4 2 2 1 2 4 1 2 1 1 2 4 5 4 5 4 3 4 4 3 3 3 1 0 2 2 1 2 2 6 7 8 9 7 5 4 4 3 3 4 3 1 1 0 1 2 4 4 4 3 0 1 1 1 3 4 3 3 2
15 15 15 15 14 14 14 12 10 10 10 12 13 10 3 1 2 3 2 2 4 3 6 6 8 6 2 2 1 1 1 1 1 2 0 2 0 1 1 2 3 3 4 5 3 3 4 3 2 4 1 2 2 3 1 1 1 3 4 4 4 4 3 2 4 4 4 4 3 1 1 1 1 3 4 4 3 1 2 2 1 3 4 4 4 3 2
16 16 16 15 15 14 14 12 11 11 13 15 12 7 5 6 3 2 1 2 5 3 6 6 9 6 2 2 2 2 2 2 2 3 3 2 2 1 1 2 2 2 3 4 3 3 3 2 1 3 2 3 2 3 2 2 1 1 1 3 2 2 2 2 2 2 2 3 3 2 1 1 2 3 3 2 0 2 2 1 3 5 5 5 6 6 5
17 16 16 15 15 15 14 13 12 13 15 16 12 7 10 12 5 3 3 3 5 4 5 6 8 7 4 4 4 2 3 3 2 4 4 2 2 2 5 3 1 2 3 3 3 2 2 2 0 2 3 1 1 3 3 2 2 1 1 2 1 0 1 1 1 1 2 3 3 2 2 1 4 3 2 2 1 3 4 5 6 6 6 7 7 7 6
16 16 16 15 15 15 15 13 13 15 16 15 11 9 12 15 12 11 10 9 6 4 3 6 10 10 8 7 7 7 6 4 2 3 4 3 2 3 4 2 3 1 1 2 2 1 1 2 1 1 3 1 1 3 3 3 2 2 2 3 1 1 0 2 1 1 1 3 2 2 2 3 5 1 2 3 3 4 6 6 6 6 5 5 6 6 5
15 15 15 15 15 15 15 14 14 16 17 14 10 9 12 14 13 16 18 17 10 4 2 5 10 12 12 11 10 9 7 4 2 3 4 1 2 3 4 2 1 2 2 3 3 1 1 2 2 2 3 2 2 3 3 2 1 2 2 3 2 2 2 3 2 2 3 4 3 4 4 5 6 6 6 7 7 6 6 7 7 5 4 4 5 6 5
14 15 15 15 15 15 15 14 14 16 17 13 10 11 13 14 13 16 20 16 9 6 6 7 8 9 9 8 9 10 9 8 7 4 2 3 3 2 1 2 1 0 1 3 4 4 3 3 3 3 3 2 3 4 4 3 2 1 2 3 2 2 4 4 3 5 7 7 6 6 7 7 8 8 7 7 7 6 6 8 7 5 4 4 4 5 6
14 14 14 14 15 15 14 14 15 17 16 13 13 13 14 13 10 11 13 9 5 5 7 7 5 4 3 3 6 9 9 10 10 9 7 6 4 1 1 1 1 2 3 2 3 4 3 3 3 3 3 3 3 3 3 4 2 1 2 2 1 1 3 4 3 3 4 5 4 5 8 9 9 8 8 8 8 6 6 6 6 6 6 5 5 6 7
14 14 13 13 14 14 14 13 15 17 16 14 14 15 15 13 9 8 9 6 3 4 4 3 3 4 5 6 7 9 10 9 10 12 12 10 6 4 2 0 2 4 4 2 3 5 4 3 3 4 3 3 3 3 2 2 3 2 2 1 1 1 2 3 4 4 5 6 6 6 8 7 6 6 7 6 7 7 6 6 7 7 7 7 8 8 7
13 13 13 12 13 13 13 13 14 16 16 14 13 16 19 17 11 10 10 7 4 4 4 2 3 6 10 10 8 8 10 12 14 14 13 11 9 8 6 4 6 7 6 4 5 6 4 4 4 4 3 3 3 3 3 2 3 3 2 1 2 3 3 3 5 7 7 7 8 9 8 6 4 4 5 6 6 7 6 6 6 7 6 6 7 7 7
12 12 12 11 12 12 13 13 14 16 16 14 13 16 18 18 15 12 8 5 3 3 3 1 2 5 9 9 8 9 10 11 15 19 19 15 15 17 15 9 6 7 7 6 5 4 4 5 4 3 3 3 3 3 3 3 3 4 3 2 2 5 5 4 6 7 5 5 8 8 7 5 3 4 6 6 6 7 7 6 5 5 5 5 5 5 6
11 11 10 10 11 11 12 13 13 14 14 14 14 15 17 17 17 14 8 5 4 3 3 2 1 3 5 6 8 11 11 9 13 20 22 21 21 22 17 10 5 6 6 5 4 4 5 5 4 3 2 3 3 4 3 3 4 3 3 3 3 4 5 5 4 4 5 9 9 6 5 6 6 6 7 7 7 7 8 7 7 6 7 8 6 5 5
10 10 9 9 9 10 12 12 12 12 11 9 10 11 12 14 16 15 11 10 9 6 3 2 2 2 1 2 6 13 16 17 19 21 22 22 21 19 15 9 5 5 5 5 5 5 4 4 3 2 2 3 4 3 3 3 3 3 2 4 5 4 5 6 5 6 7 9 8 6 6 7 8 8 8 8 10 10 7 7 8 9 11 13 11 9 9
9 8 8 7 8 9 10 11 11 11 11 7 5 6 7 7 11 15 12 12 11 6 4 3 2 1 2 2 5 11 17 20 23 23 20 17 13 11 11 9 5 4 5 5 4 4 3 3 3 2 2 2 5 4 2 3 3 3 2 6 8 6 6 6 6 7 7 7 7 8 8 8 8 9 9 10 14 13 9 9 11 13 14 14 13 12 13
8 7 7 6 7 7 8 8 9 10 10 7 4 4 2 1 5 12 12 12 11 7 4 3 2 2 3 3 2 6 11 15 16 15 14 13 10 11 13 12 6 5 5 4 3 3 3 2 3 3 4 4 5 4 2 4 4 2 2 6 8 7 7 6 6 7 8 8 8 8 8 7 8 7 5 8 14 15 11 12 16 17 17 17 17 17 17
7 6 6 5 5 5 5 5 6 8 10 8 6 5 3 2 6 11 10 11 9 6 5 4 2 1 1 3 4 6 8 9 8 7 7 7 7 9 12 10 5 4 5 5 3 3 2 2 4 4 3 4 4 3 3 5 5 4 4 7 7 7 7 7 6 7 8 9 10 9 7 7 8 8 8 12 18 18 15 16 19 21 20 19 19 18 18
6 5 4 3 3 3 3 3 5 5 7 8 7 6 5 6 9 12 9 8 6 5 4 4 2 1 1 2 4 6 7 5 4 5 5 4 3 4 6 5 4 5 6 5 3 1 1 2 4 4 3 3 4 4 4 4 5 7 7 8 7 6 6 6 6 7 7 7 8 8 7 7 8 10 12 15 19 20 18 18 19 18 16 14 13 13 14
6 5 3 2 2 2 1 2 4 5 5 5 5 4 5 6 8 11 8 5 4 4 3 3 3 1 2 2 2 3 3 3 3 3 3 3 3 4 3 4 4 4 4 3 2 3 3 3 4 4 3 3 4 4 3 4 6 7 7 6 5 6 6 6 6 6 5 6 7 7 8 9 9 8 9 9 11 14 15 15 13 10 7 6 5 7 9
5 4 2 1 2 2 2 3 5 5 4 4 3 3 4 4 5 9 9 4 3 3 1 2 4 2 1 3 1 3 1 3 2 2 2 1 3 3 3 3 4 3 2 2 3 3 3 2 3 3 2 3 3 3 3 6 7 6 6 5 5 7 6 5 5 5 5 6 7 7 9 10 9 7 6 5 6 9 10 10 11 11 7 4 4 5 6
5 4 2 2 2 2 3 4 5 5 4 2 2 2 3 2 2 5 6 5 5 3 1 1 3 3 3 3 2 3 1 2 1 1 2 2 2 3 3 4 4 1 1 3 4 3 2 2 3 3 2 2 2 3 5 7 8 7 7 6 6 7 7 7 8 7 7 8 8 7 8 9 6 5 5 4 5 9 10 9 10 10 7 4 5 8 10
4 3 2 2 2 3 3 3 4 4 3 2 1 2 3 2 2 3 3 4 4 3 3 3 2 3 3 4 2 2 2 2 1 3 3 1 1 1 2 4 3 0 2 4 3 1 1 2 3 4 2 1 3 6 6 7 8 7 6 6 6 6 8 8 8 8 7 7 7 5 5 6 5 4 4 5 6 9 9 8 8 10 9 7 7 9 11
4 5 4 4 3 3 2 2 3 4 3 2 2 2 3 3 3 2 2 2 2 2 3 4 2 2 2 3 1 1 1 2 2 2 1 1 1 2 2 3 2 1 3 2 1 1 2 3 3 4 1 1 2 4 5 6 6 6 6 7 7 7 7 7 8 9 7 5 5 4 4 5 5 4 5 6 5 6 9 11 12 14 13 11 9 10 11
5 4 5 5 3 0 2 3 3 3 2 2 3 3 2 3 3 1 2 2 1 2 2 2 2 2 4 4 0 3 0 3 4 3 1 0 1 1 1 1 1 2 3 1 1 1 4 2 2 3 2 2 1 3 3 4 6 5 5 7 8 10 10 8 9 11 9 7 7 7 7 7 7 5 4 4 4 5 10 15 15 14 14 13 11 11 12
6 5 3 2 2 4 5 3 2 2 2 3 4 3 1 1 1 1 1 1 2 1 1 1 2 2 4 6 3 1 1 2 4 3 2 1 1 2 2 1 1 3 3 1 2 2 4 2 2 3 1 1 2 4 4 6 7 5 5 8 11 12 12 10 11 14 13 11 11 12 12 12 12 9 7 7 6 6 9 13 13 13 14 12 10 10 10
7 5 2 3 7 9 7 3 2 2 2 2 2 2 1 0 1 0 1 2 1 2 1 2 2 1 1 4 4 1 1 0 2 4 3 1 1 3 3 1 0 3 2 2 2 2 4 3 2 2 3 4 4 5 5 8 8 6 8 11 13 14 15 13 12 14 15 13 12 14 15 16 15 14 11 10 9 9 12 13 13 14 14 13 10 9 9
7 6 6 8 10 8 4 3 2 2 2 2 1 1 0 1 1 1 1 1 1 1 1 1 3 3 2 3 4 2 1 1 1 3 3 0 1 2 3 0 1 3 1 3 1 3 3 3 3 3 4 5 5 5 7 8 7 7 9 12 15 17 18 16 14 14 17 16 14 15 16 16 14 12 10 9 10 12 15 17 15 14 13 11 10 9 9
6 6 6 5 4 2 2 2 1 1 2 2 1 1 1 1 1 1 1 1 0 1 0 0 1 2 2 2 3 1 0 0 1 3 2 1 0 2 3 2 1 1 2 1 2 3 2 3 4 5 6 5 5 6 7 8 7 7 9 14 18 20 21 19 16 14 16 17 16 14 13 13 10 8 6 7 9 12 14 16 15 14 12 10 9 8 7
2 2 2 2 2 1 2 1 1 1 1 0 1 2 1 1 1 1 1 1 1 1 2 2 3 3 2 1 2 1 1 1 2 2 1 0 1 2 2 1 1 1 1 1 2 2 2 2 3 6 6 5 5 6 7 7 7 6 8 12 18 20 20 19 17 14 13 14 13 12 11 11 9 8 8 9 11 14 16 16 15 13 10 9 8 6 4
1 1 2 3 2 1 1 1 1 0 1 2 2 3 3 3 3 3 3 3 2 3 2 3 5 5 2 1 1 1 0 1 2 1 1 1 2 2 1 2 1 1 2 2 2 2 2 2 3 5 7 7 7 7 7 7 7 9 8 8 11 14 16 15 14 13 12 12 12 13 12 10 8 9 10 11 13 15 15 14 13 12 10 8 6 5 3
1 1 3 3 1 2 1 0 1 1 2 3 3 4 4 5 5 5 4 2 3 5 4 4 5 5 2 1 1 1 1 2 2 0 1 3 2 0 2 1 2 2 1 1 2 2 4 5 5 7 8 8 8 8 7 6 8 10 9 6 7 11 14 14 13 13 12 11 12 12 10 8 7 8 9 9 10 12 13 12 11 10 8 6 5 3 1
0 0 2 2 1 1 0 2 3 3 3 4 4 5 5 4 4 4 2 2 5 5 4 3 4 4 2 1 2 1 1 2 2 0 1 3 2 1 1 2 1 1 2 3 3 4 4 5 6 7 9 9 8 8 8 7 8 9 9 7 8 11 15 15 14 13 13 12 12 12 11 9 9 8 8 9 11 12 11 10 9 7 5 5 4 3 2
0 0 2 1 1 1 2 3 3 2 3 3 3 4 4 3 3 4 3 2 5 6 5 4 4 3 2 2 2 1 1 2 2 0 0 2 2 1 2 2 1 2 2 4 5 5 5 6 6 7 8 8 9 9 8 7 8 9 9 8 9 12 15 16 15 14 14 14 14 14 12 10 8 8 9 12 12 9 7 5 4 4 4 4 4 3 3
0 0 0 1 1 2 3 3 1 2 5 4 3 3 3 4 4 4 3 4 6 5 4 4 4 3 1 1 2 2 1 1 1 1 1 2 2 1 1 1 2 3 2 3 4 4 5 6 6 7 8 8 9 8 8 8 8 10 11 11 12 14 17 17 16 15 14 14 14 12 9 6 5 7 10 11 8 5 4 3 2 2 4 5 5 4 2
1 1 1 2 1 2 2 1 2 3 6 4 1 3 3 5 5 3 3 4 4 4 4 4 3 2 1 1 3 2 1 1 2 2 1 0 1 2 2 2 3 4 4 4 4 4 5 6 6 7 8 9 8 8 7 8 10 12 14 15 16 17 18 18 15 14 14 13 11 8 7 6 5 7 8 6 4 3 2 0 1 1 4 5 4 3 1
1 1 2 2 3 3 2 2 3 4 5 2 3 4 3 5 5 3 3 4 5 5 4 2 1 2 3 2 1 1 1 0 2 2 1 2 2 3 3 3 5 5 3 2 3 6 6 6 7 8 8 8 7 8 9 12 14 16 17 18 19 19 19 17 14 14 14 12 7 5 5 6 5 4 4 4 4 4 4 3 1 4 6 5 3 1 0
1 1 2 3 2 3 3 3 3 4 4 4 5 4 3 4 4 4 5 7 5 3 2 2 2 3 2 1 2 1 1 1 1 1 2 2 2 3 4 5 5 4 4 3 4 5 6 6 7 9 9 8 9 11 15 17 17 17 18 19 20 20 19 17 14 13 13 11 7 5 6 6 5 5 6 8 10 10 10 8 7 6 6 4 2 1 0
Wind_Direction
344 348 348 344 344 343 339 340 343 346 348 348 346 333 315 160 328 334 155 158 148 103 42 249 272 266 260 274 280 281 275 296 354 2 11 18 2 35 45 65 68 31 355 15 52 76 69 46 75 113 88 56 10 337 57 69 61 72 63 289 320 72 78 79 26 303 21 52 53 46 32 47 64 38 8 31 30 96 129 164 168 84 26 53 81 86 184
346 351 350 348 346 340 338 344 345 348 353 346 331 323 354 305 293 310 174 182 172 74 127 197 296 266 263 277 273 268 263 351 32 18 7 359 8 50 34 35 66 41 21 37 47 58 83 81 75 103 101 48 11 44 66 70 63 72 169 221 262 45 84 93 71 8 3 356 357 14 11 22 56 18 358 11 11 37 78 88 83 68 17 121 116 146 192
352 352 349 344 340 340 342 346 345 345 348 342 324 290 318 297 243 321 217 199 191 116 171 162 255 264 272 271 266 273 267 85 58 43 20 357 27 80 25 23 80 75 55 53 41 41 72 106 58 57 80 66 46 50 51 55 69 71 77 113 108 95 99 111 111 123 148 143 264 272 312 354 30 26 16 15 11 19 41 68 70 83 239 85 105 161 148
358 352 347 338 337 342 343 345 347 346 344 341 321 270 289 51 125 334 276 190 179 243 236 138 215 248 265 269 277 322 52 65 37 38 30 1 24 75 45 37 62 58 63 71 47 36 49 69 69 63 69 68 45 52 54 49 56 51 36 37 77 91 56 71 103 114 155 163 185 211 152 68 61 46 31 22 8 17 68 94 89 149 134 48 52 140 118
356 350 344 337 339 342 341 346 349 344 339 333 308 273 278 54 108 164 174 352 286 270 283 256 222 238 266 270 296 356 29 40 15 11 25 4 15 49 38 35 47 43 67 85 59 30 40 52 61 54 60 87 68 51 59 50 51 55 30 12 58 92 47 28 73 78 90 104 93 81 81 73 71 65 46 35 29 38 60 62 304 158 118 80 94 109 100
355 350 344 339 340 342 343 347 347 343 332 313 299 286 256 219 264 243 177 221 223 233 262 251 242 254 255 263 338 11 38 71 40 331 2 15 22 51 25 18 38 57 89 104 81 37 44 38 34 28 37 73 61 31 29 26 46 65 31 0 72 105 75 18 80 80 82 88 84 81 82 73 62 61 56 48 46 51 59 45 18 80 109 134 122 100 93
356 350 347 345 344 345 347 350 349 346 319 292 305 325 274 226 312 298 328 328 211 219 249 251 254 260 245 266 15 29 66 83 97 325 33 18 17 54 53 28 39 48 69 97 85 55 79 53 21 33 36 55 76 49 8 340 5 55 54 14 65 100 80 82 94 87 80 87 89 85 83 76 58 47 49 58 57 53 49 44 56 75 85 98 101 94 84
355 348 349 348 349 350 352 355 354 349 327 301 317 269 256 61 19 309 347 336 273 262 284 282 20 323 305 57 29 56 89 78 58 41 69 67 22 42 67 57 51 51 59 76 70 58 124 118 68 70 76 50 54 107 165 274 348 26 52 6 16 76 103 98 94 85 68 84 92 87 86 83 66 40 31 50 58 47 36 32 48 73 88 92 92 91 84
353 350 353 349 353 355 354 0 1 356 350 340 335 290 274 287 292 310 39 323 303 317 304 323 70 360 346 93 38 36 64 85 85 49 46 88 86 78 88 72 57 52 53 61 63 56 103 105 86 110 125 89 53 187 172 148 93 28 39 18 22 69 79 45 80 89 80 108 109 106 99 87 70 42 27 38 53 52 44 33 26 48 111 112 93 89 102
351 351 354 353 356 357 355 2 6 3 6 18 8 315 315 325 320 330 101 323 312 308 272 87 91 354 269 88 57 49 51 61 86 73 21 54 87 108 112 89 70 58 49 48 53 69 100 112 116 130 123 66 52 73 68 84 108 121 90 52 29 73 88 76 90 98 131 173 140 120 102 83 63 16 11 44 74 78 65 40 29 32 71 109 94 106 129
352 353 354 355 355 354 358 5 7 5 14 31 9 299 318 352 330 308 76 45 301 260 176 124 104 102 69 73 65 64 61 49 62 95 58 24 62 89 103 97 86 74 54 291 238 241 276 348 68 80 66 46 50 61 58 54 54 81 112 83 23 48 88 111 105 102 151 195 158 76 61 74 43 326 353 103 105 90 77 48 38 47 63 86 96 112 120
356 354 354 355 354 352 355 4 8 2 358 351 292 274 298 341 324 298 84 67 288 292 91 144 143 111 85 79 72 66 74 69 65 98 97 40 38 63 80 90 92 101 235 247 310 23 33 20 18 29 46 60 62 58 55 48 30 25 75 105 95 69 75 89 73 100 142 152 59 61 74 114 117 48 75 100 103 94 84 62 44 50 75 98 104 112 119
355 352 354 354 352 351 351 359 4 356 342 300 276 270 278 312 322 284 130 106 318 318 28 53 80 97 92 87 84 75 78 81 69 78 87 68 49 49 52 82 107 170 188 95 52 55 68 42 16 17 21 48 59 53 52 49 34 23 25 51 102 110 102 87 71 80 107 61 40 100 135 130 121 89 85 101 100 88 81 61 36 27 48 96 114 117 120
353 352 354 352 350 351 350 355 359 351 339 304 283 279 275 268 252 260 84 96 341 293 341 57 45 73 89 92 95 79 56 52 53 59 74 83 80 71 65 140 153 161 123 81 52 57 81 59 33 23 1 15 43 40 35 43 40 33 21 10 57 110 114 95 62 60 99 95 66 96 123 143 142 95 41 49 31 359 71 88 50 20 21 60 114 126 134
355 353 353 350 349 349 350 358 3 355 340 310 289 286 280 258 231 243 325 97 96 334 11 25 356 75 80 75 82 83 50 31 54 61 42 56 94 102 344 298 91 79 77 74 61 63 73 79 74 48 9 31 62 341 344 15 17 25 25 13 27 69 104 131 108 57 84 113 107 114 152 190 156 116 323 347 3 340 4 107 97 24 12 26 95 131 147
356 353 352 350 348 352 0 8 12 7 352 328 308 302 294 250 223 231 253 113 105 44 339 293 241 86 75 52 62 96 106 56 66 61 15 3 49 99 9 356 30 61 70 66 68 71 63 74 105 106 75 107 157 290 7 27 337 342 5 20 30 37 46 94 98 86 105 117 118 137 191 217 158 264 298 324 342 330 344 104 139 68 17 13 55 113 132
355 353 351 349 350 359 10 15 17 15 2 344 330 320 308 193 210 224 230 74 86 81 299 304 65 73 56 26 16 48 112 137 102 97 72 276 248 55 12 358 7 42 81 70 45 57 70 74 92 89 60 300 121 100 43 57 14 333 342 7 22 21 14 44 78 96 104 104 105 100 105 265 297 290 297 320 330 324 335 178 194 101 37 17 49 91 100
355 352 350 351 358 8 14 17 21 17 4 354 342 326 314 129 234 233 199 93 87 52 322 351 69 77 62 106 118 332 51 53 66 87 43 282 347 61 42 26 9 14 69 79 63 67 77 72 94 105 72 330 65 98 104 78 62 321 334 11 18 9 6 44 94 96 82 93 108 100 96 124 319 298 289 304 319 281 161 183 174 94 65 47 70 83 72
353 351 351 358 7 13 17 20 23 17 6 0 353 344 16 24 333 249 158 86 91 62 331 4 69 79 58 90 92 6 27 63 95 95 66 359 314 298 23 53 43 12 43 70 79 88 89 75 95 115 93 352 32 96 96 70 57 309 24 52 28 3 7 19 73 92 84 99 105 98 112 80 336 298 281 306 291 186 160 104 101 100 90 83 82 83 87
351 352 357 6 12 15 19 23 23 17 9 3 0 10 32 37 48 125 122 110 99 66 355 15 64 78 71 76 87 67 43 45 68 105 122 183 266 25 38 17 347 25 37 59 65 63 100 108 37 97 103 86 95 108 102 84 64 21 81 96 75 42 86 66 76 103 86 80 81 123 153 337 324 294 270 353 29 153 130 101 98 99 98 98 91 85 91
351 356 3 10 13 16 22 24 22 18 11 6 8 21 36 51 77 95 92 96 101 80 25 46 72 83 88 96 110 115 110 115 131 136 155 214 272 85 107 216 230 102 83 112 98 74 131 133 118 83 98 104 82 96 125 129 79 31 97 126 105 329 185 154 189 254 101 93 89 113 101 357 346 15 107 59 66 115 123 112 108 102 99 101 95 91 95
354 0 6 12 14 18 23 24 24 21 14 11 21 34 37 50 78 94 89 84 85 96 92 77 84 90 93 91 86 82 90 111 125 139 149 127 30 84 133 158 151 155 168 133 107 108 126 114 106 97 91 83 74 80 94 116 83 1 23 70 51 27 90 105 83 64 85 96 99 94 78 43 40 66 85 84 82 90 102 107 110 107 100 100 102 103 102
359 4 8 12 15 19 22 24 26 25 22 27 47 52 44 47 69 95 95 84 74 69 54 53 74 84 81 78 74 65 59 55 45 39 110 108 62 25 80 100 88 82 97 111 131 148 133 118 121 110 97 98 100 86 71 71 79 29 37 61 92 120 106 88 89 99 91 80 83 96 94 82 75 76 83 90 91 91 94 98 102 104 103 106 116 118 116
3 5 8 13 16 19 23 26 27 29 35 54 67 59 51 51 63 89 92 79 71 67 41 28 45 62 50 69 78 64 52 50 47 38 44 78 99 76 7 9 78 67 63 96 131 124 110 112 106 91 90 98 101 92 79 82 96 83 65 75 78 59 63 69 100 132 106 83 92 108 104 102 100 97 96 95 92 93 96 102 113 124 126 129 132 128 125
4 6 10 14 15 20 25 26 27 33 44 61 71 65 58 52 55 80 88 78 94 112 75 21 355 28 69 86 70 50 43 43 46 44 45 57 87 121 149 334 51 86 115 128 83 78 78 81 86 90 92 90 91 90 86 114 142 125 101 115 126 96 92 84 85 94 95 103 119 114 99 99 102 103 109 111 110 113 118 121 126 132 134 136 137 136 137
3 6 11 14 16 22 25 24 26 37 47 60 72 71 63 55 60 88 99 93 90 93 93 84 347 29 63 68 46 42 56 56 56 62 67 69 80 97 108 80 53 69 89 81 68 79 89 81 78 86 80 70 89 105 104 125 134 105 83 147 167 130 114 101 104 105 100 110 125 118 98 85 77 98 120 132 134 132 127 122 128 133 134 136 141 144 149
3 6 11 15 17 21 24 24 27 38 51 66 82 80 69 60 60 72 85 90 83 64 70 111 303 15 47 51 45 55 62 55 58 68 75 85 93 90 85 78 70 72 72 61 55 67 79 76 71 78 84 82 82 84 86 101 104 88 67 45 84 102 103 111 122 122 120 141 150 142 124 120 148 160 148 142 141 134 127 127 137 145 151 153 149 149 158
2 6 12 15 17 23 26 27 30 40 53 72 87 84 72 61 55 56 64 85 103 128 141 147 282 12 39 37 38 47 47 50 67 74 76 82 89 87 80 74 73 74 71 71 70 65 74 89 97 86 90 103 86 58 46 59 66 65 62 54 69 114 137 144 138 129 143 160 163 149 121 133 161 167 154 151 150 142 143 155 161 166 176 175 164 159 172
1 6 12 12 17 25 28 30 34 37 44 67 94 88 73 60 51 52 67 90 97 107 115 76 25 21 45 8 26 46 61 77 83 80 75 73 75 76 75 74 76 81 86 91 93 87 83 97 111 97 92 124 116 71 41 55 54 37 70 87 83 102 126 130 126 120 132 149 152 136 126 144 166 169 163 165 164 156 156 172 175 180 188 186 181 183 187
359 5 10 12 18 28 33 34 34 27 23 37 88 80 56 46 41 43 63 94 102 100 95 88 76 11 325 334 33 52 66 78 79 75 70 64 58 58 66 70 65 63 71 75 84 100 98 67 50 28 13 73 107 99 83 99 81 20 59 99 97 91 92 102 112 117 127 141 141 136 142 153 163 163 164 171 173 169 169 180 185 189 192 192 193 197 199
356 360 6 11 20 33 41 38 30 24 22 31 72 74 58 48 27 34 60 96 105 97 89 90 84 359 348 343 16 46 55 65 70 70 68 64 56 53 61 66 56 47 67 77 67 79 95 66 46 31 6 32 81 103 107 103 95 48 65 99 102 101 100 100 104 111 118 123 119 118 130 142 145 150 168 186 187 182 177 182 191 193 194 198 203 207 208
352 354 1 10 23 47 61 45 29 36 43 53 75 89 108 113 29 30 62 106 117 109 99 77 39 27 1 325 332 10 38 54 59 55 52 55 53 50 53 58 55 46 71 90 77 46 54 68 69 64 20 26 69 86 72 88 114 147 136 116 114 118 117 113 110 107 108 112 110 109 120 142 154 166 182 190 191 188 183 186 194 195 196 202 210 214 216
346 345 355 10 30 68 90 40 24 38 44 53 71 79 74 67 42 32 56 111 123 107 106 104 80 65 251 292 340 7 23 34 38 37 31 24 42 54 38 30 39 40 42 59 80 55 43 74 77 61 8 16 72 88 82 104 140 155 143 130 126 123 116 107 105 106 110 118 121 126 145 165 171 170 170 175 182 186 188 191 193 193 195 201 212 223 227
341 337 343 3 37 88 132 7 17 26 24 39 67 64 50 58 47 35 46 102 118 77 68 93 101 63 338 10 6 348 15 56 73 69 47 360 19 72 46 6 25 46 35 39 75 72 57 72 85 73 27 19 61 82 106 155 165 154 140 132 119 108 101 95 98 111 128 127 121 130 146 147 144 147 154 163 169 173 179 182 176 170 174 184 194 208 219
336 331 330 352 43 81 84 24 17 14 14 35 61 39 37 61 50 32 32 54 84 70 24 61 99 122 62 63 70 277 339 86 111 129 120 11 10 72 90 41 36 56 65 59 65 69 79 109 113 98 68 39 53 89 155 172 168 149 131 124 116 109 108 112 121 135 143 131 120 126 133 131 132 146 157 157 144 141 143 143 135 127 123 127 127 124 130
336 341 11 67 69 75 69 39 25 14 4 15 26 20 41 83 60 20 27 49 73 100 155 81 86 129 136 118 177 265 355 87 91 7 71 61 18 40 80 79 68 60 61 60 60 73 114 126 110 98 75 65 98 166 179 162 154 151 146 148 149 139 137 146 149 146 141 134 132 138 139 135 140 151 142 118 111 117 114 108 108 109 107 109 97 84 81
1 26 61 76 51 46 37 14 17 20 9 6 49 52 53 67 41 7 23 47 54 65 99 103 130 190 164 143 187 303 43 111 101 19 33 78 86 32 55 81 96 84 41 57 73 131 132 82 85 94 90 140 161 176 176 156 153 157 153 156 164 151 146 152 146 131 123 120 118 118 124 126 127 124 114 112 117 119 118 120 125 123 122 126 118 100 92
44 57 54 44 44 49 20 340 18 45 40 26 48 46 27 33 35 5 359 26 13 355 51 98 173 237 92 101 146 303 104 134 93 48 35 189 98 48 45 79 115 112 73 71 222 158 65 35 58 85 57 308 165 161 165 157 157 159 152 156 163 152 147 154 142 124 119 119 117 110 103 109 118 134 143 143 141 136 138 142 140 135 134 134 127 114 110
53 42 32 42 61 35 301 335 22 49 40 26 44 45 14 28 44 357 317 353 11 335 21 96 181 193 105 104 217 291 335 103 82 64 31 210 120 122 108 91 83 80 89 118 261 68 75 45 40 69 34 345 101 146 159 135 129 138 145 148 149 143 141 148 147 142 148 163 166 163 155 141 140 149 145 122 95 108 137 143 141 138 137 136 129 119 117
36 20 23 48 16 327 326 342 8 13 6 20 36 45 32 25 52 193 259 16 20 303 262 140 177 187 128 122 128 316 359 100 125 139 146 156 160 140 113 108 110 88 91 208 277 77 98 92 57 74 149 206 162 175 164 121 111 120 130 128 128 128 128 133 143 146 145 144 144 142 136 129 126 128 136 133 116 117 140 148 146 143 142 138 131 125 124
18 16 12 321 314 321 334 352 3 12 36 46 31 37 68 289 286 278 86 65 349 270 266 84 85 55 74 109 118 125 325 350 137 131 113 48 19 85 87 133 167 85 96 237 250 83 88 86 80 126 207 208 188 176 141 113 110 120 121 114 111 109 108 109 119 128 126 120 119 118 112 107 106 110 119 126 126 135 152 155 149 146 146 141 133 127 126
339 322 313 309 307 311 332 5 9 21 52 62 22 5 153 228 280 23 91 147 201 257 327 67 125 153 149 112 115 142 231 302 74 89 87 355 263 100 98 83 42 79 157 228 215 73 78 94 123 178 217 214 191 162 127 117 126 133 125 117 112 108 106 106 109 116 116 112 109 109 106 104 102 102 108 111 114 128 147 155 153 151 150 144 134 126 122
312 297 303 315 315 323 8 5 2 47 52 45 59 61 326 318 3 72 269 275 277 91 69 212 129 110 82 84 94 97 320 43 81 84 95 162 261 70 73 59 66 136 198 221 67 85 121 150 165 186 203 204 185 155 132 131 136 130 124 124 121 117 115 115 115 114 112 108 106 106 108 108 103 98 106 115 114 121 138 149 149 145 141 137 131 125 120
310 284 324 358 351 24 42 356 319 86 74 355 137 137 181 257 225 173 207 262 245 170 176 152 109 96 88 91 86 58 5 20 63 75 88 97 34 62 83 130 225 212 189 80 80 125 184 206 192 183 182 182 173 156 144 138 130 119 121 128 128 126 125 124 123 123 122 117 110 105 105 107 105 101 106 115 117 121 130 138 138 136 135 133 130 125 122
88 58 45 33 346 341 66 20 320 23 171 213 197 160 172 197 203 198 205 207 176 149 136 112 106 108 111 351 58 88 51 24 50 74 124 76 52 56 149 196 193 87 90 108 125 144 194 234 203 169 166 173 171 156 145 139 132 127 126 127 126 127 130 131 132 134 134 127 117 111 107 102 96 103 115 125 130 134 138 141 140 138 137 136 136 133 119
138 172 90 82 311 288 103 122 280 253 201 211 202 182 182 191 199 210 217 189 135 135 141 129 110 105 97 8 47 95 80 61 62 51 113 88 83 243 229 158 90 65 81 140 173 188 209 215 192 166 165 170 164 151 146 143 134 128 128 127 122 122 123 126 130 134 133 126 119 115 110 98 95 107 117 124 133 139 141 142 142 140 138 140 151 168 156
234 234 93 99 282 297 139 193 217 213 207 207 201 197 198 200 212 234 239 148 134 140 142 119 99 98 105 113 110 111 31 68 77 5 25 85 103 273 342 67 94 181 159 171 210 229 221 202 179 167 167 165 155 148 149 147 139 134 135 136 133 124 119 119 124 130 128 121 111 104 99 99 103 104 101 107 121 131 134 135 140 144 145 148 159 176 185
164 69 95 121 194 214 212 227 250 261 246 234 224 216 204 190 215 249 251 140 131 136 132 115 102 88 40 46 94 109 14 49 69 312 350 89 99 353 26 53 255 242 174 175 206 213 194 181 176 168 164 158 149 147 150 151 149 145 141 141 141 133 124 121 125 127 120 113 108 105 104 105 105 97 98 110 122 130 132 138 156 174 177 174 177 185 203
139 60 159 197 200 214 215 204 203 277 275 268 254 241 211 164 175 206 191 126 121 133 138 128 121 118 70 11 67 78 36 53 98 72 17 54 95 148 134 152 229 245 226 211 211 195 174 169 163 153 153 152 148 149 154 155 152 149 146 147 149 142 132 129 132 130 123 118 115 112 109 112 116 112 113 118 129 141 144 145 166 208 210 205 200 196 211
189 176 237 216 210 280 282 171 147 273 293 305 226 210 189 133 130 152 148 122 115 103 84 75 83 96 98 59 68 62 302 248 130 104 75 100 165 165 151 177 213 225 229 225 201 167 153 152 146 143 149 151 146 146 151 149 146 146 146 145 143 140 136 137 140 138 130 125 122 123 132 143 134 117 117 128 148 161 153 13 333 201 184 185 180 168 134
226 258 263 209 179 205 247 194 180 249 283 284 183 193 171 126 128 148 132 109 98 86 83 102 109 76 64 67 102 137 236 234 100 112 174 209 173 147 162 206 222 222 221 206 157 144 146 149 146 144 146 147 144 145 145 141 139 141 141 141 141 141 141 142 143 142 139 136 136 148 158 154 142 132 139 144 125 97 69 37 41 152 153 147 139 132 64
203 221 273 271 216 190 197 202 215 236 240 218 201 192 146 130 153 152 115 97 97 115 144 153 104 84 92 169 190 150 107 68 88 152 208 225 194 166 185 213 222 199 161 133 124 127 133 139 139 140 142 144 143 141 140 139 141 145 147 145 143 144 145 146 147 147 147 149 155 160 154 150 159 169 150 119 99 88 84 90 109 130 133 123 118 142 330